Regional Weather Roundup
Issued by NWS

Home | Current Version | Previous Version | Text Only | Print | Product List | Glossary Off
Versions: 1 2 3 4 5 6 7 8 9 10 11 12 13 14 15 16 17 18 19 20 21 22 23 24 25 26 27 28 29 30 31 32 33 34 35 36 37 38 39 40 41 42 43 44 45 46 47 48 49 50

000
ASUS43 KOAX 230010
RWRNE

WEATHER ROUNDUP FOR NEBRASKA
NATIONAL WEATHER SERVICE OMAHA NE
700 PM CDT FRI JUL 22 2016

NOTES: SATELLITE DATA IS BEING USED TO AUGMENT CLOUD COVER ABOVE
       12000 FEET.
       "FAIR" INDICATES FEW OR NO CLOUDS BELOW 12,000 FEET WITH NO
       SIGNIFICANT WEATHER AND/OR OBSTRUCTIONS TO VISIBILITY.

  * THESE STATIONS DO NOT REPORT WEATHER SUCH AS RAIN...SNOW OR FOG.

NEZ001>004-019>022-054>056-230100-
NEBRASKA PANHANDLE

CITY           SKY/WX    TMP DP  RH WIND       PRES   REMARKS
SCOTTSBLUFF    CLOUDY    81  64  56 E24G31    30.02S
6HR MIN TEMP:  78; 6HR MAX TEMP:  97; 6HR PCP: TRACE;

ALLIANCE       CLOUDY    69  64  84 E17       30.03F THUNDER
6HR MIN TEMP:  68; 6HR MAX TEMP:  97; 6HR PCP:  0.52;

CHADRON        TSTM      74  63  68 SE18      29.99F
6HR MIN TEMP:  70; 6HR MAX TEMP: 103; 6HR PCP:  0.22;

SIDNEY         MOSUNNY   93  57  29 S16G25    30.03F HX  91
6HR MIN TEMP:  93; 6HR MAX TEMP: 100;

$$

NEZ057>060-069>072-079>082-230100-
SOUTHWEST NEBRASKA

CITY           SKY/WX    TMP DP  RH WIND       PRES   REMARKS
NORTH PLATTE   CLOUDY    89  78  70 SE8       29.96R HX 103
6HR MIN TEMP:  89; 6HR MAX TEMP:  96;

IMPERIAL       CLOUDY    86  56  35 SE10      29.98F
6HR MIN TEMP:  86; 6HR MAX TEMP:  99;

LEXINGTON      CLOUDY    88  70  55 SE7       29.95F HX  93
MCCOOK         PTSUNNY   91  68  46 E9        29.93F HX  95
6HR MIN TEMP:  91; 6HR MAX TEMP: 102;

OGALLALA       PTSUNNY   92  60  35 E7        29.97F HX  91
$$

NEZ005>010-023>029-035>040-094-230100-
NORTH CENTRAL NEBRASKA

CITY           SKY/WX    TMP DP  RH WIND       PRES   REMARKS
VALENTINE      CLOUDY    93  62  35 SE8       29.97R HX  93
6HR MIN TEMP:  93; 6HR MAX TEMP:  99;

AINSWORTH      CLOUDY    87  75  68 E7        29.98S HX  97
BROKEN BOW     CLOUDY    89  78  70 E7        29.94F HX 103
6HR MIN TEMP:  89; 6HR MAX TEMP:  94;

O`NEILL        SUNNY     93  75  55 SE9       29.95S HX 104
ORD            SUNNY     93  77  59 E7        29.91S HX 107
6HR MIN TEMP:  93; 6HR MAX TEMP:  98;

THEDFORD       CLOUDY    92  72  51 SE8       29.98F HX  99
$$

NEZ041-046>049-061>064-073>077-083>087-230100-
SOUTH CENTRAL NEBRASKA

CITY           SKY/WX    TMP DP  RH WIND       PRES   REMARKS
GRAND ISLAND   SUNNY     92  71  50 SW9       29.93R HX  98
6HR MIN TEMP:  92; 6HR MAX TEMP:  98;

AURORA         MOSUNNY   88  74  63 SW5       29.92S HX  97
HASTINGS       MOSUNNY   90  68  48 CALM      29.93F HX  94
6HR MIN TEMP:  86; 6HR MAX TEMP:  94;

HEBRON         CLOUDY    88  64  43 CALM      29.88R
HOLDREGE       SUNNY     88  69  52 SE5       29.94F HX  92
KEARNEY *      SUNNY     90  70  51 S7        29.95F HX  95
YORK           PTSUNNY   86  73  66 SW3       29.92R HX  93
$$

NEZ011>018-030>034-042>045-230100-
NORTHEAST NEBRASKA

CITY           SKY/WX    TMP DP  RH WIND       PRES   REMARKS
NORFOLK        MOSUNNY   91  76  61 SE5       29.91S HX 103
6HR MIN TEMP:  89; 6HR MAX TEMP:  92;

ALBION         SUNNY     90  78  68 NE6       29.92S HX 104
BLAIR          MOSUNNY   92  82  74 SE6       29.91S HX 114
FREMONT        MOSUNNY   92  74  55 S5        29.90S HX 102
TEKAMAH        MOSUNNY   92  81  70 E8        29.89F HX 112
6HR MIN TEMP:  90; 6HR MAX TEMP:  94;

WAYNE          MOSUNNY   88  79  74 SE6       29.92F HX 103
$$

NEZ050>053-065>068-078-088>093-230100-
SOUTHEAST NEBRASKA

CITY           SKY/WX    TMP DP  RH WIND       PRES   REMARKS
LINCOLN        PTSUNNY   90  73  57 S7        29.90F HX  98
6HR MIN TEMP:  90; 6HR MAX TEMP:  96;

OMAHA EPPLEY   PTSUNNY   93  80  65 S10       29.89F HX 112
6HR MIN TEMP:  90; 6HR MAX TEMP:  94;

BEATRICE       CLOUDY    87  66  49 SE7       29.88F
FALLS CITY     MOSUNNY   92  76  59 S6        29.90S HX 104
6HR MIN TEMP:  91; 6HR MAX TEMP:  96;

NEBRASKA CITY  PTSUNNY   91  77  64 CALM      29.91F HX 103
PLATTSMOUTH    CLOUDY    90  83  79 CALM      29.90F HX 113
$$

NEZ044-045-051>053-067-230100-
OMAHA AREA

CITY           SKY/WX    TMP DP  RH WIND       PRES   REMARKS
OMAHA EPPLEY   PTSUNNY   93  80  65 S10       29.89F HX 112
6HR MIN TEMP:  90; 6HR MAX TEMP:  94;

BLAIR          MOSUNNY   92  82  74 SE6       29.91S HX 114
FREMONT        MOSUNNY   92  74  55 S5        29.90S HX 102
MILLARD        MOSUNNY   92  83  72 SE7       29.89S HX 116
OFFUTT AFB     PTSUNNY   92  82  73 SE8       29.89F HX 114
PLATTSMOUTH    CLOUDY    90  83  79 CALM      29.90F HX 113
WAHOO          FAIR      92  76  59 S8        29.90S HX 103
$$



USA.gov is the U.S. government's official web portal to all federal, state and local government web resources and services.